| time (UTC) | temp C | wind direction | speed KPH | gust KPH | rain 1hr cm | rain 24hr cm | rain mn cm | humidity % | barometer mb |
| 20260504151022 | 21 | 337 | 8.0 | 9.7 | 0.00 | 0.00 | 0.00 | 52 | 1018.5 |
| 20260504150424 | 21 | 270 | 3.2 | 4.8 | 0.00 | 0.00 | 0.00 | 54 | 1018.6 |
| 20260504141021 | 18 | 225 | 0.0 | 3.2 | 0.00 | 0.00 | 0.00 | 67 | 1019.0 |
| 20260504140421 | 18 | 203 | 1.6 | 4.8 | 0.00 | 0.00 | 0.00 | 69 | 1019.1 |
| 20260504130422 | 13 | 0.0 | 0.0 | 0.00 | 0.00 | 0.00 | 91 | 1018.8 | |
| 20260504110421 | 3 | 0.0 | 0.0 | 0.00 | 0.00 | 0.00 | 96 | 1018.3 | |
| 20260504100420 | 3 | 0.0 | 0.0 | 0.00 | 0.00 | 0.00 | 96 | 1018.1 | |
| 20260504081622 | 4 | 0.0 | 0.0 | 0.00 | 0.00 | 0.00 | 95 | 1018.1 | |
| 20260504081020 | 4 | 0.0 | 0.0 | 0.00 | 0.00 | 0.00 | 95 | 1018.0 | |
| 20260504080441 | 4 | 0.0 | 0.0 | 0.00 | 0.00 | 0.00 | 95 | 1018.1 | |
| 20260504050421 | 6 | 0.0 | 0.0 | 0.00 | 0.00 | 0.00 | 94 | 1019.1 | |
| 20260504045821 | 6 | 0.0 | 0.0 | 0.00 | 0.00 | 0.00 | 95 | 1019.1 | |
| 20260504045241 | 6 | 0.0 | 0.0 | 0.00 | 0.00 | 0.00 | 94 | 1019.1 | |
| 20260504044620 | 6 | 0.0 | 0.0 | 0.00 | 0.00 | 0.00 | 93 | 1019.2 | |
| 20260504044020 | 6 | 0.0 | 0.0 | 0.00 | 0.00 | 0.00 | 93 | 1019.2 | |
| 20260504043421 | 6 | 0.0 | 0.0 | 0.00 | 0.00 | 0.00 | 94 | 1019.2 | |
| 20260504042820 | 6 | 0.0 | 0.0 | 0.00 | 0.00 | 0.00 | 94 | 1019.3 | |
| 20260504042220 | 6 | 0.0 | 0.0 | 0.00 | 0.00 | 0.00 | 94 | 1019.4 | |
| 20260504041620 | 6 | 0.0 | 0.0 | 0.00 | 0.00 | 0.00 | 94 | 1019.5 | |
| 20260504041021 | 6 | 0.0 | 0.0 | 0.00 | 0.00 | 0.00 | 94 | 1019.5 | |
| 20260504040501 | 6 | 0.0 | 0.0 | 0.00 | 0.00 | 0.00 | 93 | 1019.5 | |
| 20260504035901 | 6 | 0.0 | 0.0 | 0.00 | 0.00 | 0.00 | 93 | 1019.5 | |
| 20260504035221 | 6 | 0.0 | 0.0 | 0.00 | 0.00 | 0.00 | 93 | 1019.5 | |
| 20260504034620 | 7 | 0.0 | 0.0 | 0.00 | 0.00 | 0.00 | 93 | 1019.5 | |
| 20260504034041 | 7 | 0.0 | 0.0 | 0.00 | 0.00 | 0.00 | 93 | 1019.5 | |
| 20260504033422 | 7 | 0.0 | 0.0 | 0.00 | 0.00 | 0.00 | 93 | 1019.4 | |
| 20260504032841 | 7 | 0.0 | 0.0 | 0.00 | 0.00 | 0.00 | 92 | 1019.5 | |
| 20260504032221 | 7 | 0.0 | 0.0 | 0.00 | 0.00 | 0.00 | 92 | 1019.5 | |
| 20260504031620 | 7 | 0.0 | 0.0 | 0.00 | 0.00 | 0.00 | 92 | 1019.5 | |
| 20260504031020 | 7 | 0.0 | 0.0 | 0.00 | 0.00 | 0.00 | 92 | 1019.5 | |
| 20260504030443 | 7 | 0.0 | 0.0 | 0.00 | 0.00 | 0.00 | 92 | 1019.4 | |
| 20260504025820 | 7 | 0.0 | 0.0 | 0.00 | 0.00 | 0.00 | 92 | 1019.4 | |
| 20260504025221 | 7 | 0.0 | 0.0 | 0.00 | 0.00 | 0.00 | 92 | 1019.4 | |
| 20260504024620 | 8 | 0.0 | 0.0 | 0.00 | 0.00 | 0.00 | 92 | 1019.4 | |
| 20260504024020 | 8 | 0.0 | 0.0 | 0.00 | 0.00 | 0.00 | 91 | 1019.4 | |
| 20260504023420 | 8 | 0.0 | 0.0 | 0.00 | 0.00 | 0.00 | 92 | 1019.3 | |
| 20260504022820 | 8 | 0.0 | 0.0 | 0.00 | 0.00 | 0.00 | 91 | 1019.3 | |
| 20260504022220 | 8 | 0.0 | 0.0 | 0.00 | 0.00 | 0.00 | 91 | 1019.2 | |
| 20260504021621 | 8 | 0.0 | 0.0 | 0.00 | 0.00 | 0.00 | 91 | 1019.1 | |
| 20260504021020 | 9 | 0.0 | 0.0 | 0.00 | 0.00 | 0.00 | 89 | 1019.1 | |
| 20260504020524 | 9 | 0.0 | 0.0 | 0.00 | 0.00 | 0.00 | 89 | 1019.0 | |
| 20260504015821 | 10 | 0.0 | 0.0 | 0.00 | 0.00 | 0.00 | 89 | 1018.9 | |
| 20260504015240 | 10 | 0.0 | 0.0 | 0.00 | 0.00 | 0.00 | 88 | 1018.9 | |
| 20260504014641 | 10 | 0.0 | 0.0 | 0.00 | 0.00 | 0.00 | 88 | 1018.8 | |
| 20260504014021 | 10 | 0.0 | 0.0 | 0.00 | 0.00 | 0.00 | 87 | 1018.7 | |
| 20260504013421 | 10 | 0.0 | 0.0 | 0.00 | 0.00 | 0.00 | 85 | 1018.6 | |
| 20260504012821 | 11 | 0.0 | 0.0 | 0.00 | 0.00 | 0.00 | 84 | 1018.6 | |
| 20260504012241 | 11 | 0.0 | 0.0 | 0.00 | 0.00 | 0.00 | 83 | 1018.5 | |
| 20260504011620 | 11 | 0.0 | 0.0 | 0.00 | 0.00 | 0.00 | 81 | 1018.5 | |
| 20260504011020 | 12 | 0.0 | 0.0 | 0.00 | 0.00 | 0.00 | 80 | 1018.4 | |
| 20260504010441 | 12 | 0.0 | 0.0 | 0.00 | 0.00 | 0.00 | 79 | 1018.3 | |
| 20260504005820 | 13 | 0.0 | 0.0 | 0.00 | 0.00 | 0.00 | 76 | 1018.3 | |
| 20260504005223 | 13 | 0.0 | 0.0 | 0.00 | 0.00 | 0.00 | 75 | 1018.2 | |
| 20260504004625 | 14 | 0.0 | 0.0 | 0.00 | 0.00 | 0.00 | 73 | 1018.2 | |
| 20260504004021 | 15 | 0.0 | 0.0 | 0.00 | 0.00 | 0.00 | 69 | 1018.2 | |
| 20260504003421 | 16 | 0.0 | 0.0 | 0.00 | 0.00 | 0.00 | 67 | 1018.1 | |
| 20260504002820 | 17 | 0.0 | 0.0 | 0.00 | 0.00 | 0.00 | 62 | 1018.1 | |
| 20260504002221 | 17 | 0.0 | 0.0 | 0.00 | 0.00 | 0.00 | 61 | 1018.0 | |
| 20260504001621 | 18 | 0.0 | 0.0 | 0.00 | 0.00 | 0.00 | 59 | 1018.1 | |
| 20260504001021 | 20 | 0.0 | 0.0 | 0.00 | 0.00 | 0.00 | 51 | 1018.1 | |
| 20260504000421 | 21 | 0.0 | 0.0 | 0.00 | 0.00 | 0.00 | 49 | 1018.0 | |
| 20260503235821 | 20 | 0.0 | 0.0 | 0.00 | 0.00 | 0.00 | 50 | 1018.0 | |
| 20260503235241 | 21 | 0.0 | 0.0 | 0.00 | 0.00 | 0.00 | 46 | 1018.0 | |
| 20260503234621 | 21 | 0.0 | 0.0 | 0.00 | 0.00 | 0.00 | 45 | 1018.0 | |
| 20260503234022 | 21 | 0.0 | 0.0 | 0.00 | 0.00 | 0.00 | 45 | 1018.0 | |
| 20260503233422 | 21 | 339 | 3.2 | 4.8 | 0.00 | 0.00 | 0.00 | 44 | 1018.0 |
| 20260503232821 | 21 | 325 | 8.0 | 8.0 | 0.00 | 0.00 | 0.00 | 42 | 1018.1 |
| 20260503232222 | 21 | 252 | 3.2 | 8.0 | 0.00 | 0.00 | 0.00 | 42 | 1018.0 |
| 20260503231641 | 21 | 0.0 | 1.6 | 0.00 | 0.00 | 0.00 | 42 | 1018.0 | |
| 20260503231020 | 22 | 327 | 6.4 | 9.7 | 0.00 | 0.00 | 0.00 | 41 | 1018.0 |
| 20260503230421 | 22 | 35 | 4.8 | 8.0 | 0.00 | 0.00 | 0.00 | 41 | 1018.1 |
| 20260503225819 | 22 | 358 | 6.4 | 8.0 | 0.00 | 0.00 | 0.00 | 41 | 1018.1 |
| 20260503225301 | 21 | 332 | 9.7 | 11.3 | 0.00 | 0.00 | 0.00 | 39 | 1018.1 |
| 20260503224621 | 22 | 0.0 | 0.0 | 0.00 | 0.00 | 0.00 | 42 | 1018.1 | |
| 20260503224020 | 21 | 340 | 6.4 | 9.7 | 0.00 | 0.00 | 0.00 | 40 | 1018.1 |
| 20260503223520 | 22 | 310 | 6.4 | 11.3 | 0.00 | 0.00 | 0.00 | 39 | 1018.1 |
| 20260503222820 | 22 | 349 | 8.0 | 9.7 | 0.00 | 0.00 | 0.00 | 38 | 1018.1 |
| 20260503222220 | 22 | 342 | 8.0 | 11.3 | 0.00 | 0.00 | 0.00 | 38 | 1018.1 |
| 20260503221620 | 22 | 276 | 1.6 | 6.4 | 0.00 | 0.00 | 0.00 | 39 | 1018.2 |
| 20260503221019 | 23 | 311 | 11.3 | 12.9 | 0.00 | 0.00 | 0.00 | 37 | 1018.2 |
| 20260503220419 | 23 | 279 | 4.8 | 6.4 | 0.00 | 0.00 | 0.00 | 36 | 1018.2 |
| 20260503215819 | 21 | 270 | 1.6 | 6.4 | 0.00 | 0.00 | 0.00 | 42 | 1018.2 |
| 20260503215220 | 21 | 45 | 1.6 | 3.2 | 0.00 | 0.00 | 0.00 | 43 | 1018.2 |
| 20260503214620 | 21 | 324 | 4.8 | 8.0 | 0.00 | 0.00 | 0.00 | 41 | 1018.3 |
| 20260503214020 | 21 | 265 | 4.8 | 6.4 | 0.00 | 0.00 | 0.00 | 40 | 1018.3 |
| 20260503213444 | 20 | 298 | 8.0 | 12.9 | 0.00 | 0.00 | 0.00 | 38 | 1018.3 |
| 20260503212924 | 21 | 258 | 3.2 | 4.8 | 0.00 | 0.00 | 0.00 | 39 | 1018.3 |
| 20260503212220 | 20 | 277 | 4.8 | 8.0 | 0.00 | 0.00 | 0.00 | 39 | 1018.4 |
| 20260503211620 | 21 | 299 | 4.8 | 8.0 | 0.00 | 0.00 | 0.00 | 39 | 1018.4 |
| 20260503211059 | 21 | 289 | 6.4 | 12.9 | 0.00 | 0.00 | 0.00 | 42 | 1018.4 |
| 20260503210419 | 21 | 301 | 4.8 | 14.5 | 0.00 | 0.00 | 0.00 | 42 | 1018.4 |
| 20260503205820 | 20 | 315 | 3.2 | 6.4 | 0.00 | 0.00 | 0.00 | 39 | 1018.4 |
| 20260503205219 | 20 | 315 | 9.7 | 12.9 | 0.00 | 0.00 | 0.00 | 38 | 1018.4 |
| 20260503204619 | 20 | 296 | 3.2 | 12.9 | 0.00 | 0.00 | 0.00 | 43 | 1018.5 |
| 20260503204020 | 20 | 342 | 4.8 | 6.4 | 0.00 | 0.00 | 0.00 | 40 | 1018.5 |
| 20260503203419 | 21 | 225 | 4.8 | 8.0 | 0.00 | 0.00 | 0.00 | 42 | 1018.6 |
| 20260503202824 | 20 | 26 | 9.7 | 19.3 | 0.00 | 0.00 | 0.00 | 40 | 1018.8 |
| 20260503202219 | 20 | 315 | 9.7 | 11.3 | 0.00 | 0.00 | 0.00 | 40 | 1018.9 |
| 20260503201637 | 20 | 1 | 9.7 | 12.9 | 0.00 | 0.00 | 0.00 | 40 | 1019.0 |
| 20260503201037 | 21 | 306 | 8.0 | 11.3 | 0.00 | 0.00 | 0.00 | 42 | 1019.1 |
| 20260503200437 | 20 | 261 | 3.2 | 8.0 | 0.00 | 0.00 | 0.00 | 44 | 1019.2 |
| 20260503195836 | 21 | 317 | 6.4 | 9.7 | 0.00 | 0.00 | 0.00 | 43 | 1019.3 |
| 20260503195257 | 21 | 317 | 9.7 | 12.9 | 0.00 | 0.00 | 0.00 | 42 | 1019.4 |
| 20260503194636 | 20 | 359 | 6.4 | 9.7 | 0.00 | 0.00 | 0.00 | 43 | 1019.5 |
| 20260503194037 | 21 | 293 | 6.4 | 9.7 | 0.00 | 0.00 | 0.00 | 43 | 1019.6 |
| 20260503193436 | 20 | 233 | 1.6 | 4.8 | 0.00 | 0.00 | 0.00 | 44 | 1019.7 |
| 20260503192838 | 21 | 263 | 3.2 | 6.4 | 0.00 | 0.00 | 0.00 | 44 | 1019.9 |
| 20260503192238 | 21 | 337 | 11.3 | 16.1 | 0.00 | 0.00 | 0.00 | 42 | 1019.9 |
| 20260503191637 | 21 | 356 | 3.2 | 9.7 | 0.00 | 0.00 | 0.00 | 44 | 1020.0 |
| 20260503191036 | 20 | 85 | 3.2 | 4.8 | 0.00 | 0.00 | 0.00 | 45 | 1020.1 |
| 20260503190436 | 20 | 316 | 4.8 | 6.4 | 0.00 | 0.00 | 0.00 | 44 | 1020.2 |
| 20260503185841 | 21 | 320 | 8.0 | 9.7 | 0.00 | 0.00 | 0.00 | 45 | 1020.2 |
| 20260503185237 | 20 | 293 | 4.8 | 11.3 | 0.00 | 0.00 | 0.00 | 45 | 1020.2 |
| 20260503184637 | 20 | 326 | 4.8 | 9.7 | 0.00 | 0.00 | 0.00 | 47 | 1020.4 |
| 20260503184036 | 20 | 225 | 4.8 | 8.0 | 0.00 | 0.00 | 0.00 | 46 | 1020.4 |
| 20260503183438 | 19 | 229 | 3.2 | 6.4 | 0.00 | 0.00 | 0.00 | 45 | 1020.4 |
| 20260503182836 | 20 | 288 | 6.4 | 9.7 | 0.00 | 0.00 | 0.00 | 46 | 1020.5 |
| 20260503182236 | 20 | 227 | 3.2 | 8.0 | 0.00 | 0.00 | 0.00 | 47 | 1020.5 |
| 20260503181657 | 20 | 259 | 4.8 | 8.0 | 0.00 | 0.00 | 0.00 | 48 | 1020.6 |
| 20260503181038 | 20 | 114 | 3.2 | 4.8 | 0.00 | 0.00 | 0.00 | 50 | 1020.6 |
| 20260503180436 | 20 | 203 | 1.6 | 3.2 | 0.00 | 0.00 | 0.00 | 51 | 1020.7 |
| 20260503175841 | 19 | 235 | 3.2 | 6.4 | 0.00 | 0.00 | 0.00 | 48 | 1020.7 |
| 20260503175236 | 19 | 68 | 3.2 | 6.4 | 0.00 | 0.00 | 0.00 | 49 | 1020.7 |
| 20260503174636 | 18 | 28 | 6.4 | 9.7 | 0.00 | 0.00 | 0.00 | 48 | 1020.8 |
| 20260503174036 | 18 | 349 | 11.3 | 17.7 | 0.00 | 0.00 | 0.00 | 50 | 1020.8 |
| 20260503173436 | 18 | 310 | 6.4 | 12.9 | 0.00 | 0.00 | 0.00 | 49 | 1020.9 |
| 20260503172857 | 18 | 333 | 8.0 | 14.5 | 0.00 | 0.00 | 0.00 | 48 | 1021.0 |
| 20260503172240 | 18 | 289 | 4.8 | 8.0 | 0.00 | 0.00 | 0.00 | 51 | 1021.0 |
| 20260503171656 | 18 | 322 | 4.8 | 11.3 | 0.00 | 0.00 | 0.00 | 51 | 1021.1 |
| 20260503171036 | 19 | 316 | 3.2 | 4.8 | 0.00 | 0.00 | 0.00 | 48 | 1021.1 |
| 20260503170436 | 18 | 270 | 6.4 | 11.3 | 0.00 | 0.00 | 0.00 | 51 | 1021.2 |